Theta_e
330 329 329 330 330 329 328 326 324 321 320 319 318 317 314 310 306 303 302 301 300 300 299 299 299 299 299 299 298 299 299 299 299 299 298 298 298 297 297 297 296 296
329 330 331 331 330 329 327 324 321 319 319 317 316 314 311 305 302 301 300 300 300 299 299 298 298 298 298 298 298 298 298 298 298 298 297 297 297 297 296 296 296 295
330 331 331 330 329 327 325 322 320 319 318 316 314 312 307 301 300 300 299 299 299 299 298 298 298 298 298 298 298 298 298 298 298 297 297 297 297 296 296 295 295 295
331 331 330 328 326 324 322 321 319 318 316 314 313 309 303 299 299 299 298 299 299 298 298 297 298 297 297 297 297 297 297 297 297 297 297 297 296 296 296 295 295 295
330 330 328 326 324 322 320 319 317 316 315 313 311 306 300 298 298 298 298 299 298 298 297 297 297 297 297 297 297 297 297 297 297 297 297 297 296 296 295 295 294 294
329 328 326 324 322 320 318 317 316 315 313 311 308 303 298 297 298 298 298 298 297 297 296 296 297 296 297 297 296 297 297 297 297 296 296 296 296 295 295 294 294 294
327 326 324 322 320 318 317 316 315 314 312 309 305 300 297 297 297 297 297 297 296 296 296 296 296 296 296 297 296 297 296 296 296 296 296 296 296 295 295 294 294 294
325 324 322 320 319 317 316 315 314 313 311 307 302 299 297 297 296 296 296 296 296 296 296 296 296 296 296 296 296 296 296 297 296 296 296 296 295 295 294 294 294 294
323 322 320 319 317 316 316 315 313 312 310 305 300 298 297 296 296 296 296 295 296 295 295 296 296 296 296 296 296 296 296 296 296 296 296 296 296 295 295 294 294 294
322 321 319 317 316 315 315 314 312 311 308 302 298 298 297 296 296 296 295 295 295 295 295 295 295 296 296 295 296 296 296 296 295 295 296 296 295 295 295 295 295 294
321 319 318 316 315 314 313 312 311 310 305 300 298 298 297 296 296 295 295 295 295 295 295 295 295 295 295 295 296 296 296 296 295 296 296 296 295 295 295 295 295 294
319 317 317 316 314 313 312 310 310 308 302 298 298 298 297 296 295 295 295 295 295 295 295 295 295 295 295 295 295 296 296 295 296 296 296 295 295 295 295 295 295 294
317 316 316 315 313 311 310 309 309 305 300 298 298 298 297 295 295 295 295 295 295 295 294 295 295 295 295 295 295 295 295 295 296 295 295 295 295 295 295 295 295 294
316 315 314 313 311 310 309 308 306 302 299 299 298 298 297 295 294 295 295 295 295 295 295 295 295 294 295 295 295 295 295 295 295 295 295 294 294 295 295 295 294 294
315 314 312 311 310 309 309 307 304 300 299 299 298 297 296 295 294 295 294 295 295 294 295 294 294 294 294 295 295 295 295 295 295 295 295 295 294 294 294 294 294 293
314 313 311 310 310 309 308 305 302 299 299 299 298 297 296 294 294 295 294 294 294 294 294 294 294 294 294 294 295 295 295 295 294 294 294 295 294 294 294 294 293 293
313 312 311 310 310 309 306 303 301 299 299 299 298 296 295 294 294 294 294 294 294 294 294 294 294 294 294 294 294 294 294 294 294 294 294 294 294 294 294 293 293 293
313 312 311 311 310 309 306 303 301 299 299 299 297 296 295 294 294 294 294 294 294 294 294 294 294 294 294 294 294 294 294 294 293 293 293 294 294 294 294 294 293 293
314 312 312 311 310 309 306 303 301 299 298 298 297 296 295 294 294 294 294 294 294 294 294 294 294 294 294 294 294 294 294 294 293 293 293 293 293 294 294 293 293 293
313 312 311 310 309 308 307 304 300 298 298 298 297 296 294 294 294 294 294 294 294 294 294 294 294 294 294 294 294 294 293 293 293 293 292 292 293 293 293 293 293 293
312 311 310 310 309 308 307 304 300 299 298 297 296 295 294 294 294 294 294 294 294 294 294 294 294 294 293 293 293 293 293 293 293 293 293 292 292 292 293 293 293 292
312 311 310 310 309 308 306 303 300 300 299 297 296 295 294 293 293 294 293 294 294 294 293 293 293 293 293 293 293 293 293 293 293 293 293 292 292 292 292 292 292 292
311 311 310 310 309 307 304 302 300 300 299 298 296 295 294 293 293 293 293 293 293 293 293 293 293 293 293 293 293 293 293 293 293 293 293 292 292 292 292 292 292 292
312 311 310 310 308 305 303 302 301 300 299 298 297 296 294 293 293 293 293 293 293 293 293 293 293 293 293 293 294 294 293 293 293 293 293 293 292 292 292 292 292 292
312 311 310 309 306 304 303 301 301 300 299 298 298 296 294 293 293 293 293 293 293 293 293 293 293 293 293 293 294 294 294 294 293 293 293 293 293 292 292 292 292 292
312 311 310 307 304 303 302 301 300 300 300 299 298 297 294 293 293 293 293 293 293 293 293 292 292 293 293 294 294 294 294 294 293 294 293 293 292 292 292 292 292 292
Wind_Speed
16 15 14 13 13 14 14 13 12 11 11 13 14 12 8 4 2 2 2 2 2 2 2 3 5 5 6 7 8 8 9 9 10 11 11 11 11 11 12 12 13 13
14 14 14 15 15 15 14 12 11 11 12 13 13 8 3 3 3 3 3 2 2 2 2 3 5 6 6 7 7 8 8 9 10 11 11 11 11 11 11 12 12 13
14 16 17 17 16 15 13 12 11 11 12 13 10 4 3 4 4 4 3 2 2 1 2 4 5 5 6 6 7 7 8 9 10 10 11 11 10 10 11 11 12 13
17 18 18 16 15 13 12 12 11 10 12 11 5 3 5 5 4 3 3 3 2 1 2 4 4 4 5 5 6 7 7 8 9 10 10 10 10 10 10 11 11 12
18 18 17 15 14 13 11 11 10 10 11 8 3 5 5 5 4 4 3 2 2 1 2 3 3 3 4 5 6 6 7 8 9 9 10 9 9 9 9 10 10 11
18 17 15 14 13 12 11 10 10 11 10 5 4 6 6 5 4 4 3 2 2 1 1 2 2 2 3 4 5 6 8 8 8 9 9 9 9 8 8 9 9 11
18 17 15 14 13 11 10 10 10 10 7 4 6 7 6 5 4 3 3 2 2 2 2 2 1 2 3 4 5 7 7 8 8 8 8 9 8 8 8 8 9 11
18 16 15 14 13 12 11 11 11 10 6 6 7 7 6 5 4 3 3 3 3 2 2 2 1 1 2 4 5 6 7 7 8 8 8 8 7 7 7 7 9 11
16 15 15 15 14 13 12 12 11 8 6 7 7 6 6 5 5 4 4 4 4 3 2 2 1 1 2 3 5 5 6 7 8 7 7 7 6 6 7 8 10 11
16 16 16 15 14 14 13 13 11 7 8 8 7 6 6 6 6 6 5 5 4 3 2 2 1 1 2 3 4 4 6 7 7 6 5 6 6 7 8 9 10 12
17 17 16 15 15 15 14 12 10 8 9 9 7 7 6 7 7 7 6 5 4 3 2 1 1 0 1 2 3 4 5 6 6 5 5 6 7 8 9 10 11 13
18 17 16 16 16 15 13 12 10 10 10 9 8 7 7 7 8 7 7 5 4 3 2 2 1 0 1 1 2 3 5 5 5 5 5 6 7 9 10 11 12 13
17 17 17 17 15 14 13 12 12 11 11 10 8 8 8 8 8 7 6 5 4 3 3 2 2 1 1 1 2 3 4 4 5 6 6 6 7 9 10 11 12 14
17 18 17 16 15 14 14 13 12 12 11 10 9 9 8 8 8 7 6 5 5 4 4 3 2 2 1 0 1 2 3 4 5 6 7 7 8 8 9 10 12 13
18 19 18 17 16 15 14 14 13 13 12 10 10 9 9 8 8 6 5 5 5 5 5 4 3 3 2 0 1 2 2 3 5 6 6 7 8 8 9 10 11 13
20 20 19 18 17 15 15 15 14 13 12 11 10 8 8 8 7 6 6 6 5 5 5 4 4 3 2 1 0 1 1 2 4 5 6 6 7 8 8 9 11 12
21 21 20 19 17 16 15 15 14 14 12 11 9 8 8 8 7 6 7 6 6 6 5 5 4 4 3 2 1 1 1 2 3 4 5 5 6 7 8 9 10 11
21 22 21 20 17 15 14 15 14 13 12 11 9 9 8 8 7 7 7 7 7 7 6 5 5 4 4 3 2 2 1 1 3 3 4 4 5 6 7 8 9 10
24 24 22 20 16 14 14 15 15 13 12 11 10 9 9 8 8 8 8 8 8 7 7 6 6 5 4 4 3 2 1 2 3 3 3 4 4 5 6 7 8 10
26 25 23 20 17 16 17 17 15 14 13 11 10 10 9 9 9 8 8 8 8 8 7 7 6 6 5 4 3 2 1 1 2 3 3 3 3 4 5 7 8 9
26 25 23 20 18 18 18 17 16 15 13 11 10 10 10 9 9 8 9 9 9 9 8 7 7 6 5 4 3 1 0 1 2 3 3 3 3 4 5 6 8 8
25 24 22 20 20 20 20 19 17 15 13 12 12 11 11 10 10 9 9 9 9 9 8 7 7 6 5 4 3 1 0 1 2 2 2 3 3 4 4 6 7 8
25 23 21 21 22 22 21 19 17 15 13 12 12 12 12 11 11 11 10 10 10 10 9 8 7 6 5 3 2 1 1 1 1 2 2 3 3 3 4 5 6 7
23 22 21 21 23 23 21 19 18 16 13 12 12 11 11 12 11 11 12 11 11 10 9 8 7 6 5 3 2 2 0 1 1 2 2 2 3 2 3 4 5 7
22 21 21 21 22 23 21 19 18 16 14 13 12 11 11 12 12 12 12 12 12 10 10 8 7 5 4 3 2 1 1 1 1 1 2 2 2 2 2 3 4 6
20 20 21 21 22 23 21 19 18 17 15 15 14 13 12 12 12 13 12 12 11 11 10 9 7 5 4 2 2 1 2 2 1 1 2 2 2 2 3 3 4 6
Wind_Direction
219 230 241 247 249 252 260 268 272 278 286 294 306 312 308 288 229 163 140 122 99 62 38 33 36 34 31 32 31 27 24 20 20 24 22 18 16 16 16 18 19 19
224 230 233 237 244 252 260 265 268 277 286 297 307 308 276 215 192 165 143 122 99 73 55 44 41 38 32 32 30 24 22 18 19 23 20 17 17 15 18 20 20 20
222 224 228 238 248 256 261 261 266 275 284 296 303 286 189 190 189 165 145 128 111 90 65 48 40 35 29 30 28 23 23 19 20 22 18 16 17 15 19 23 23 23
219 224 232 241 247 253 257 260 266 272 282 292 288 193 181 186 179 162 147 132 118 84 57 49 39 32 28 28 25 22 23 22 22 21 15 14 17 17 23 27 26 27
224 231 237 242 246 251 255 258 263 268 279 286 233 178 179 177 170 162 150 132 117 82 56 55 44 39 36 32 27 22 23 22 21 19 14 16 22 25 30 32 29 28
229 234 237 242 246 250 253 252 253 262 273 267 194 179 173 166 164 157 149 137 129 118 87 81 68 56 46 36 27 21 21 21 20 19 18 24 31 34 37 35 29 27
233 234 234 239 242 244 247 243 248 263 265 216 182 179 169 159 156 152 155 159 159 157 133 115 95 67 48 32 22 18 21 23 23 26 27 32 38 39 40 38 29 26
232 233 234 237 237 236 237 238 249 263 245 190 180 179 168 160 160 164 171 172 171 175 161 150 131 62 40 26 19 16 21 29 31 33 35 37 40 38 39 38 30 26
232 233 233 233 230 229 231 236 248 251 213 184 179 179 177 176 178 181 182 180 178 185 183 175 163 62 35 24 20 19 24 32 36 38 37 38 39 36 38 37 30 26
234 233 230 228 224 222 227 234 240 225 193 183 178 181 188 192 192 189 186 184 182 187 192 184 164 57 29 23 21 22 28 32 35 38 36 35 38 37 38 36 30 26
231 227 224 222 219 220 225 228 223 202 187 183 180 185 194 196 194 190 186 186 186 188 193 187 167 46 15 17 21 25 29 30 34 40 37 34 37 37 35 34 29 24
223 219 219 219 218 218 218 211 200 190 185 184 184 190 196 195 191 190 189 188 188 188 190 193 194 232 343 6 18 24 26 29 33 41 41 36 38 37 32 30 28 22
218 215 215 216 213 208 203 197 191 186 184 186 189 192 193 192 191 193 192 187 186 190 194 194 206 229 264 6 17 16 20 27 34 42 44 39 37 36 29 25 25 20
215 213 210 209 204 198 195 193 190 187 187 189 192 192 191 189 188 191 191 187 186 189 194 199 208 225 242 332 9 9 17 28 39 47 44 38 35 31 25 20 19 17
212 208 204 200 198 196 195 193 189 189 191 192 191 190 187 183 184 187 184 186 189 190 194 199 204 219 231 256 353 9 28 36 45 51 42 34 33 27 19 15 13 11
206 202 200 198 197 197 196 193 190 190 193 194 190 185 183 180 184 186 180 181 188 191 193 196 201 212 220 229 290 20 54 49 50 52 39 26 25 20 13 10 9 6
203 199 199 199 198 198 195 192 190 191 193 195 187 182 181 181 182 183 181 181 184 187 191 196 199 201 204 211 205 165 99 59 50 46 36 19 10 10 7 3 2 359
205 203 202 200 197 197 196 195 194 193 195 194 187 184 185 184 183 182 180 180 181 184 190 192 195 195 193 199 198 179 134 61 46 34 25 11 359 357 357 355 353 353
207 207 205 200 198 201 203 201 198 197 196 194 190 189 187 185 185 182 179 181 181 182 186 186 187 189 189 193 197 187 130 57 43 30 15 359 348 344 345 345 344 347
203 204 202 199 201 206 206 202 199 198 196 195 193 190 187 187 187 182 179 181 181 179 181 182 183 187 189 191 195 185 118 49 39 33 16 352 337 334 336 337 339 343
200 200 199 201 205 207 203 200 201 199 197 194 188 184 184 184 184 183 180 181 181 177 175 178 183 186 188 190 190 187 146 23 23 22 13 352 337 333 333 334 336 339
200 200 200 204 207 204 200 200 201 199 198 192 184 181 182 180 178 180 181 182 180 175 172 177 184 184 185 189 189 187 252 346 1 2 0 355 347 338 333 332 333 335
202 203 203 206 207 203 199 199 199 197 197 193 187 183 180 177 177 177 178 181 181 176 173 178 182 180 181 187 189 189 234 329 342 351 2 2 353 343 334 331 331 330
207 209 208 207 206 203 200 199 198 196 195 192 189 185 178 175 177 179 179 180 180 177 175 175 179 179 179 186 190 191 188 22 4 3 12 8 359 350 336 332 331 329
210 212 210 206 205 204 202 201 199 197 196 192 187 184 180 177 179 183 184 181 177 175 172 171 173 173 174 183 185 165 94 77 63 36 32 19 10 4 348 339 333 327
213 213 210 206 206 205 203 201 201 199 198 195 189 184 184 184 182 182 185 184 179 174 169 166 165 162 164 173 165 127 103 98 92 65 50 35 23 12 355 344 332 326